Weather in Orda

Russia / Perm Krai     57°11′45″N   56°54′21″E
temp.,
°C
wind,
m/s
gust,
m/s
humid.,
%
clouds,
%
prec.,
mm/h
press.,
hPa
HPBL,
m
27 february, sat
sat2723:00−19se469097 0.0 1020103
02:00−20se588555 0.0 1017126
05:00−20se6109054 0.0 1015172
08:00−20ese61287100 0.0 1012222
11:00−17ese71186100 0.0 1010296
14:00−14ese71192100 0.1 1008451
17:00−12ese61092100 0.5 1008633
20:00−16ese61193100 0.4 1008508
28 february, sun
sun2823:00−17e51194100 0.5 1008435
02:00−17e61193100 0.1 1007421
05:00−17ene61194100 0.2 1007429
08:00−16ene6129399 0.1 1007449
11:00−15ene7119399 0.4 1007566
14:00−13ene6992100 0.3 1008616
17:00−13ne6993100 0.8 1009556
20:00−16ene61094100 0.3 1011413
1 march, mon
mon123:00−18ene599499 0.4 1014377
02:00−21ne469882 0.0 1015137
05:00−22ne469782 0.1 101788
08:00−23ne369776 0.0 101882
11:00−20ne359354 0.0 1019226
14:00−16nne348749 0.0 1019391
17:00−14n239174 0.0 1019289
20:00−19nw119850 0.0 102020
2 march, tue
tue223:00−20s129941 0.0 102020
02:00−21ssw239926 0.0 101820
05:00−22ssw349925 0.0 101753
08:00−22ssw499836 0.0 1015141
11:00−19ssw6109666 0.0 1013309
14:00−15ssw61191100 0.0 1011469
17:00−13s61187100 0.0 1009521
20:00−14ssw61293100 0.1 1008475
3 march, wed
wed323:00−15ssw51193100 0.4 1007503
02:00−15s51094100 0.4 1006456
05:00−15s4895100 0.8 1005396
08:00−16s3895100 0.3 1004295
11:00−13s2493100 0.6 1004335
14:00−10s2288100 0.5 1003397
17:00−9nnw1192100 0.6 1003185
20:00−12n239698 0.2 100340